When you browse on this site, cookies collect data to enhance your experience and personalize the content and advertising you see.
Visit our Privacy Policy to learn more. By continuing to use the site, you agree to this use of cookies and data.
  • Em Portugal
  • Lista de países
  • Para 7 dias
  • Temperatura da água
  • Mapas de satélite
  • Mapa do tempo
  • Widgets de tempo
  • user-avatar
    Iniciar Sessão

    Previsão horária em Poswietne

    Hoje, 16 Dezembro, Domingo

    Tempo Temperatura Precipitação Vento Pressão Humidade
    00:00 -5°C° 0 mm 2 m/s 752 mmHg 91%
    01:00 -5°C° 0 mm 2 m/s 751 mmHg 91%
    02:00 -5°C° 0 mm 2 m/s 751 mmHg 91%
    03:00 -5°C° 0 mm 2 m/s 750 mmHg 91%
    04:00 -5°C° 0 mm 2 m/s 750 mmHg 91%
    05:00 -5°C° 0 mm 2 m/s 750 mmHg 91%
    06:00 -5°C° 0 mm 2 m/s 749 mmHg 91%
    07:00 -5°C° 0 mm 2 m/s 749 mmHg 91%
    08:00 -5°C° 0 mm 2 m/s 749 mmHg 88%
    09:00 -4°C° 0 mm 2 m/s 749 mmHg 84%
    10:00 -3°C° 0 mm 2 m/s 748 mmHg 81%
    11:00 -3°C° 0 mm 2 m/s 748 mmHg 77%
    12:00 -2°C° 0 mm 3 m/s 748 mmHg 74%
    13:00 -2°C° 0 mm 3 m/s 747 mmHg 70%
    14:00 -2°C° 0 mm 3 m/s 747 mmHg 73%
    15:00 -3°C° 0 mm 2 m/s 747 mmHg 75%
    16:00 -3°C° 0 mm 2 m/s 747 mmHg 78%
    17:00 -3°C° 0 mm 2 m/s 747 mmHg 77%
    18:00 -3°C° 0 mm 2 m/s 747 mmHg 76%
    19:00 -3°C° 0 mm 2 m/s 747 mmHg 75%
    20:00 -3°C° 0 mm 2 m/s 747 mmHg 76%
    21:00 -3°C° 0 mm 2 m/s 747 mmHg 77%
    22:00 -3°C° 0 mm 2 m/s 747 mmHg 77%
    23:00 -3°C° 0 mm 2 m/s 747 mmHg 79%

    Amanhã, 17 Dezembro, Segunda-feira

    Tempo Temperatura Precipitação Vento Pressão Humidade
    00:00 -3°C° 0 mm 2 m/s 747 mmHg 80%
    01:00 -3°C° 0 mm 2 m/s 748 mmHg 82%
    02:00 -3°C° 0 mm 2 m/s 748 mmHg 82%
    03:00 -3°C° 0 mm 2 m/s 748 mmHg 83%
    04:00 -2°C° 0 mm 2 m/s 748 mmHg 83%
    05:00 -2°C° 0 mm 2 m/s 748 mmHg 84%
    06:00 -2°C° 0 mm 2 m/s 749 mmHg 86%
    07:00 -1°C° 0 mm 2 m/s 749 mmHg 87%
    08:00 -1°C° 0 mm 2 m/s 749 mmHg 86%
    09:00 +1°C° 0 mm 2 m/s 750 mmHg 85%
    10:00 0°C° 0 mm 3 m/s 750 mmHg 85%
    11:00 +2°C° 0 mm 2 m/s 751 mmHg 84%
    12:00 +2°C° 0 mm 2 m/s 751 mmHg 83%
    13:00 +3°C° 0 mm 2 m/s 751 mmHg 82%
    14:00 +2°C° 0 mm 2 m/s 751 mmHg 85%
    15:00 +1°C° 0 mm 2 m/s 752 mmHg 87%
    16:00 +1°C° 0 mm 1 m/s 752 mmHg 90%
    17:00 -1°C° 0 mm 2 m/s 753 mmHg 90%
    18:00 -1°C° 0 mm 2 m/s 753 mmHg 90%
    19:00 -1°C° 0 mm 2 m/s 753 mmHg 90%
    20:00 -1°C° 0 mm 2 m/s 754 mmHg 90%
    21:00 -1°C° 0 mm 2 m/s 754 mmHg 90%
    22:00 -1°C° 0 mm 2 m/s 754 mmHg 89%
    23:00 -1°C° 0 mm 2 m/s 754 mmHg 89%

    Depois de amanhã, 18 Dezembro, Terça-feira

    Tempo Temperatura Precipitação Vento Pressão Humidade
    00:00 -1°C° 0 mm 2 m/s 754 mmHg 89%
    01:00 -1°C° 0 mm 2 m/s 754 mmHg 89%
    02:00 -1°C° 0.2 mm 2 m/s 754 mmHg 89%
    03:00 +1°C° 0.2 mm 2 m/s 754 mmHg 89%
    04:00 +1°C° 0.2 mm 2 m/s 754 mmHg 89%
    05:00 +1°C° 0.2 mm 2 m/s 754 mmHg 90%
    06:00 +1°C° 0.2 mm 2 m/s 754 mmHg 91%
    07:00 +1°C° 0.2 mm 2 m/s 755 mmHg 91%
    08:00 +1°C° 0.1 mm 2 m/s 755 mmHg 91%
    09:00 +2°C° 0.1 mm 2 m/s 755 mmHg 92%
    10:00 +2°C° 0.1 mm 2 m/s 755 mmHg 92%
    11:00 +3°C° 0 mm 1 m/s 755 mmHg 92%
    12:00 +3°C° 0 mm 1 m/s 755 mmHg 93%
    13:00 +4°C° 0 mm 1 m/s 755 mmHg 93%
    14:00 +3°C° 0 mm 1 m/s 755 mmHg 94%
    15:00 +3°C° 0 mm 1 m/s 755 mmHg 94%
    16:00 +1°C° 0 mm 0 m/s 755 mmHg 95%
    17:00 +2°C° 0 mm 1 m/s 754 mmHg 94%
    18:00 +2°C° 0 mm 1 m/s 754 mmHg 94%
    19:00 +2°C° 0 mm 1 m/s 754 mmHg 94%
    20:00 -1°C° 0 mm 2 m/s 754 mmHg 94%
    21:00 -1°C° 0 mm 2 m/s 754 mmHg 93%
    22:00 -1°C° 0 mm 2 m/s 754 mmHg 93%
    23:00 -1°C° 0 mm 2 m/s 753 mmHg 93%

    19 Dezembro, Quarta-feira

    Tempo Temperatura Precipitação Vento Pressão Humidade
    00:00 -2°C° 0 mm 2 m/s 753 mmHg 93%
    01:00 -2°C° 0 mm 2 m/s 753 mmHg 92%
    02:00 -2°C° 0 mm 2 m/s 753 mmHg 92%
    03:00 -2°C° 0 mm 2 m/s 752 mmHg 92%
    04:00 -2°C° 0 mm 2 m/s 752 mmHg 92%
    05:00 -2°C° 0 mm 3 m/s 752 mmHg 91%
    06:00 -2°C° 0 mm 3 m/s 752 mmHg 91%
    07:00 -2°C° 0 mm 3 m/s 752 mmHg 90%
    08:00 -1°C° 0 mm 3 m/s 752 mmHg 88%
    09:00 -1°C° 0 mm 3 m/s 752 mmHg 86%
    10:00 0°C° 0 mm 3 m/s 752 mmHg 83%
    11:00 +1°C° 0 mm 3 m/s 751 mmHg 82%
    12:00 +1°C° 0 mm 3 m/s 751 mmHg 81%
    13:00 +2°C° 0 mm 3 m/s 751 mmHg 79%
    14:00 +1°C° 0 mm 3 m/s 751 mmHg 82%
    15:00 0°C° 0 mm 3 m/s 750 mmHg 84%
    16:00 -1°C° 0 mm 3 m/s 750 mmHg 87%
    17:00 -1°C° 0 mm 3 m/s 750 mmHg 87%
    18:00 -1°C° 0 mm 3 m/s 750 mmHg 87%
    19:00 -1°C° 0 mm 3 m/s 750 mmHg 87%
    20:00 -1°C° 0 mm 3 m/s 750 mmHg 86%
    21:00 -1°C° 0 mm 3 m/s 749 mmHg 85%
    22:00 -1°C° 0 mm 3 m/s 749 mmHg 83%
    23:00 -1°C° 0 mm 3 m/s 749 mmHg 82%

    20 Dezembro, Quinta-feira

    Tempo Temperatura Precipitação Vento Pressão Humidade
    00:00 -1°C° 0 mm 3 m/s 749 mmHg 81%
    01:00 -1°C° 0 mm 3 m/s 749 mmHg 80%
    02:00 -1°C° 0 mm 3 m/s 749 mmHg 79%
    03:00 -1°C° 0 mm 3 m/s 749 mmHg 79%
    04:00 -1°C° 0 mm 3 m/s 749 mmHg 79%
    05:00 -1°C° 0 mm 3 m/s 749 mmHg 79%
    06:00 -2°C° 0 mm 3 m/s 749 mmHg 80%
    07:00 -2°C° 0 mm 2 m/s 749 mmHg 81%
    08:00 -2°C° 0 mm 2 m/s 749 mmHg 80%
    09:00 -1°C° 0 mm 2 m/s 749 mmHg 79%
    10:00 -1°C° 0 mm 2 m/s 749 mmHg 78%
    11:00 -1°C° 0 mm 2 m/s 749 mmHg 77%
    12:00 +1°C° 0 mm 2 m/s 749 mmHg 76%
    13:00 +1°C° 0 mm 2 m/s 749 mmHg 74%
    14:00 -1°C° 0 mm 2 m/s 749 mmHg 77%
    15:00 -1°C° 0 mm 2 m/s 749 mmHg 80%
    16:00 -2°C° 0 mm 2 m/s 749 mmHg 83%
    17:00 -2°C° 0.1 mm 2 m/s 749 mmHg 84%
    18:00 -1°C° 0.1 mm 2 m/s 749 mmHg 84%
    19:00 -1°C° 0.1 mm 2 m/s 749 mmHg 85%
    20:00 -1°C° 0.2 mm 2 m/s 749 mmHg 86%
    21:00 -1°C° 0.2 mm 2 m/s 749 mmHg 87%
    22:00 +1°C° 0.2 mm 2 m/s 749 mmHg 88%
    23:00 +1°C° 0.3 mm 2 m/s 749 mmHg 89%

    21 Dezembro, Sexta-feira

    Tempo Temperatura Precipitação Vento Pressão Humidade
    00:00 0°C° 0.3 mm 3 m/s 750 mmHg 90%
    01:00 0°C° 0.3 mm 3 m/s 750 mmHg 91%
    02:00 0°C° 0.2 mm 3 m/s 750 mmHg 92%
    03:00 0°C° 0.2 mm 3 m/s 750 mmHg 93%
    04:00 +1°C° 0.2 mm 3 m/s 750 mmHg 94%
    05:00 +1°C° 0.1 mm 3 m/s 750 mmHg 94%
    06:00 +1°C° 0.1 mm 3 m/s 750 mmHg 94%
    07:00 +2°C° 0.1 mm 2 m/s 750 mmHg 94%
    08:00 +2°C° 0 mm 2 m/s 750 mmHg 92%
    09:00 +1°C° 0 mm 3 m/s 750 mmHg 91%
    10:00 +1°C° 0 mm 3 m/s 751 mmHg 89%
    11:00 +2°C° 0 mm 2 m/s 750 mmHg 88%
    12:00 +3°C° 0 mm 2 m/s 750 mmHg 87%
    13:00 +3°C° 0 mm 2 m/s 750 mmHg 85%
    14:00 +3°C° 0 mm 2 m/s 750 mmHg 87%
    15:00 +2°C° 0 mm 2 m/s 750 mmHg 89%
    16:00 +1°C° 0 mm 2 m/s 750 mmHg 91%
    17:00 +1°C° 0 mm 2 m/s 749 mmHg 91%
    18:00 0°C° 0 mm 3 m/s 749 mmHg 91%
    19:00 -1°C° 0 mm 3 m/s 749 mmHg 91%
    20:00 0°C° 0 mm 3 m/s 749 mmHg 90%
    21:00 0°C° 0 mm 3 m/s 748 mmHg 89%
    22:00 0°C° 0 mm 3 m/s 748 mmHg 89%
    23:00 -1°C° 0.1 mm 4 m/s 747 mmHg 87%
    Mostrar mais